Regional Weather Roundup
Issued by NWS Burlington, VT

Home | Current Version | Previous Version | Text Only | Print | Product List | Glossary On
Versions: 1 2 3 4 5 6 7 8 9 10 11 12 13 14 15 16 17 18 19 20 21 22 23 24 25 26 27 28 29 30 31 32 33 34 35 36 37 38 39 40 41 42 43 44 45 46 47 48 49 50
000
ASUS41 KBTV 280630
RWRBTV
VERMONT REGIONAL WEATHER ROUNDUP
NATIONAL WEATHER SERVICE BURLINGTON VT
200 AM EDT THU MAY 28 2015

NOTE: "FAIR" INDICATES FEW OR NO CLOUDS BELOW 12,000 FEET WITH NO
SIGNIFICANT WEATHER AND/OR OBSTRUCTIONS TO VISIBILITY.

* THESE REPORTS ARE NOT UNDER NWS QUALITY CONTROL AND/OR DO NOT
  REPORT WEATHER SUCH AS PRECIPITATION AND FOG.

VTZ001>019-280700-
_____VERMONT_____


CITY           SKY/WX    TMP DP  RH WIND       PRES   REMARKS
BURLINGTON     CLEAR     70  64  81 S12       30.00R
6HR MIN TEMP:  69; 6HR MAX TEMP:  75;

MONTPELIER     CLEAR     62  60  93 S6        30.08S
6HR MIN TEMP:  62; 6HR MAX TEMP:  70;

MORRISVILLE    CLEAR     66  61  84 S3        30.03S
6HR MIN TEMP:  64; 6HR MAX TEMP:  75;

LYNDONVILLE*   CLOUDY    65  63  90 SE3       30.06S
6HR MIN TEMP:  65; 6HR MAX TEMP:  68;

MIDDLEBURY*    MOCLDY    69  65  88 S8        30.04S
6HR MIN TEMP:  69; 6HR MAX TEMP:  73;

RUTLAND*       CLEAR     61  57  88 SE5       30.07F
6HR MIN TEMP:  61; 6HR MAX TEMP:  70;

SPRINGFIELD    CLOUDY    62  60  93 CALM      30.08S
6HR MIN TEMP:  61; 6HR MAX TEMP:  70; 6HR PCP: TRACE;

HIGHGATE*        N/A     68  65  89 S5        29.97S
6HR MIN TEMP:  68; 6HR MAX TEMP:  74;

NEWPORT*         N/A     62  61  97 SE5       30.02S
6HR MIN TEMP:  60; 6HR MAX TEMP:  70;

BENNINGTON     PTCLDY    61  59  93 CALM      30.09S FOG
6HR MIN TEMP:  60; 6HR MAX TEMP:  71;

SUTTON*          N/A     64 N/A N/A MISG        N/A
GALLUP MILLS*    N/A     64 N/A N/A MISG        N/A
MT. MANSFIELD*   N/A     59 N/A N/A CALM        N/A

_____LAKE CHAMPLAIN_____


CITY           SKY/WX    TMP DP  RH WIND       PRES   REMARKS
BURTON ISLAND*   N/A     64  63  94 S14         N/A
COLCHESTER RF*   N/A     61  61 100 SW21        N/A
DIAMOND ISL*     N/A     66  64  94 S13         N/A

$$

NYZ007-026>031-035-052-083-280700-
_____NORTHERN NEW YORK_____


CITY           SKY/WX    TMP DP  RH WIND       PRES   REMARKS
PLATTSBURGH    PTCLDY    62  61  96 CALM      29.98R
6HR MIN TEMP:  61; 6HR MAX TEMP:  69;

SARANAC LAKE   MOCLDY    62  60  93 SW3       30.03S
6HR MIN TEMP:  57; 6HR MAX TEMP:  73;

MASSENA        MOCLDY    70  56  61 SW14G25   29.96R
6HR MIN TEMP:  70; 6HR MAX TEMP:  78;

OGDENSBURG*    CLEAR     66  59  77 SW9       29.97S
POTSDAM*       PTCLDY    70  59  68 SW9       29.98S
STARK FALLS*     N/A     70 N/A N/A SW8         N/A
WATERTOWN      MOCLDY    61  59  93 S5        30.00S
6HR MIN TEMP:  61; 6HR MAX TEMP:  76; 6HR PCP:  0.01;

FT DRUM        MOCLDY    67  62  85 SW9       30.00S
6HR MIN TEMP:  67; 6HR MAX TEMP:  76; 6HR PCP: TRACE;

ALBANY         MOCLDY    68  65  90 S9        30.07S
6HR MIN TEMP:  68; 6HR MAX TEMP:  70;

GLENS FALLS    CLOUDY    68  65  90 S5        30.05F
6HR MIN TEMP:  68; 6HR MAX TEMP:  70;


$$
NHZ002-005-011-280700-
_____NEW HAMPSHIRE_____


CITY           SKY/WX    TMP DP  RH WIND       PRES   REMARKS
LEBANON        CLOUDY    66  64  93 S6        30.06S
6HR MIN TEMP:  65; 6HR MAX TEMP:  71;

KEENE          CLOUDY    66  64  94 S6        30.10R
6HR MIN TEMP:  66; 6HR MAX TEMP:  70; 6HR PCP:  0.12;

MT WASHINGTON  FOG       52  52 100 W40G48      N/A  VSB 0
6HR MIN TEMP:  49; 6HR MAX TEMP:  54; 6HR PCP:  0.02;

PLYMOUTH       FOG       62  62 100 CALM      30.06S VSB 1/4
6HR MIN TEMP:  63; 6HR MAX TEMP:  69; 6HR PCP:  0.01;

WHITEFIELD     PTCLDY    63  61  93 E5        30.05S
6HR MIN TEMP:  61; 6HR MAX TEMP:  71; 6HR PCP: TRACE;


$$

_____REGIONAL QUEBEC LOCATIONS_____


CITY           SKY/WX    TMP DP  RH WIND       PRES   REMARKS
MONTREAL       MOCLDY    70  61  73 SW15      29.92R
QUEBEC CITY    PTCLDY    64  63  94 W5        29.88S
SHERBROOKE     PTCLDY    61 N/A N/A VRB2      29.98F

_____REGIONAL ONTARIO LOCATIONS_____


CITY           SKY/WX    TMP DP  RH WIND       PRES   REMARKS
OTTAWA         PTCLDY    66  59  77 SW10G17   29.93S

______KEY______
VSB  - VISIBILITY IN MILES
WCI  - WIND CHILL INDEX
HX   - HEAT INDEX
$$
NNNN



USA.gov is the U.S. government's official web portal to all federal, state and local government web resources and services.